owner,sensor,date,latitude,longitude,vertical_datum,wind_speed,wind_to_direction,wind_speed_of_gust,qcFlag 
TCOON,ioos:station:TCOON:006:1,2009-07-01T00:00:00Z,27.8217,-97.2040,0.0,7.2,125.0,8.5,'11111222,11111222,11111222' 
TCOON,ioos:station:TCOON:006:1,2009-07-01T02:00:00Z,27.8217,-97.2040,0.0,6.1,132.0,7.5,'11111222,11111222,11111222' 
TCOON,ioos:station:TCOON:006:1,2009-07-01T03:00:00Z,27.8217,-97.2040,0.0,5.6,140.0,6.2,'11111222,11111222,11111222' 
TCOON,ioos:station:TCOON:006:1,2009-07-01T04:00:00Z,27.8217,-97.2040,0.0,4.9,130.0,6.1,'11111222,11111222,11111222' 
TCOON,ioos:station:TCOON:006:1,2009-07-01T05:00:00Z,27.8217,-97.2040,0.0,4.6,145.0,6.2,'11111222,11111222,11111222' 
TCOON,ioos:station:TCOON:006:1,2009-07-01T06:00:00Z,27.8217,-97.2040,0.0,5.4,158.0,6.7,'11111222,11111222,11111222' 
TCOON,ioos:station:TCOON:006:1,2009-07-01T07:00:00Z,27.8217,-97.2040,0.0,4.1,151.0,5.1,'11111222,11111222,11111222' 
TCOON,ioos:station:TCOON:006:1,2009-07-01T08:00:00Z,27.8217,-97.2040,0.0,3.6,177.0,4.7,'11111222,11111222,11111222' 
TCOON,ioos:station:TCOON:006:1,2009-07-01T09:00:00Z,27.8217,-97.2040,0.0,4.6,192.0,5.2,'11111222,11111222,11111222' 
TCOON,ioos:station:TCOON:006:1,2009-07-01T10:00:00Z,27.8217,-97.2040,0.0,3.9,194.0,5.7,'11111222,11111222,11111222' 
TCOON,ioos:station:TCOON:006:1,2009-07-01T11:00:00Z,27.8217,-97.2040,0.0,3.0,223.0,4.3,'11111222,11111222,11111222' 
TCOON,ioos:station:TCOON:006:1,2009-07-01T12:00:00Z,27.8217,-97.2040,0.0,1.8,215.0,2.1,'11111222,11111222,11111222' 
TCOON,ioos:station:TCOON:006:1,2009-07-01T13:00:00Z,27.8217,-97.2040,0.0,0.4,231.0,1.6,'11111222,11111222,11111222' 
TCOON,ioos:station:TCOON:006:1,2009-07-01T14:00:00Z,27.8217,-97.2040,0.0,2.2,153.0,2.6,'11111222,11111222,11111222' 
TCOON,ioos:station:TCOON:006:1,2009-07-01T15:00:00Z,27.8217,-97.2040,0.0,2.3,149.0,3.6,'11111222,11111222,11111222' 
TCOON,ioos:station:TCOON:006:1,2009-07-01T16:00:00Z,27.8217,-97.2040,0.0,2.7,155.0,4.0,'11111222,11111222,11111222' 
TCOON,ioos:station:TCOON:006:1,2009-07-01T17:00:00Z,27.8217,-97.2040,0.0,3.3,125.0,4.1,'11111222,11111222,11111222' 
TCOON,ioos:station:TCOON:006:1,2009-07-01T18:00:00Z,27.8217,-97.2040,0.0,4.7,118.0,5.7,'11111222,11111222,11111222' 
TCOON,ioos:station:TCOON:006:1,2009-07-01T19:00:00Z,27.8217,-97.2040,0.0,4.3,112.0,5.6,'11111222,11111222,11111222' 
TCOON,ioos:station:TCOON:006:1,2009-07-01T20:00:00Z,27.8217,-97.2040,0.0,4.7,112.0,7.0,'11111222,11111222,11111222' 
TCOON,ioos:station:TCOON:006:1,2009-07-01T21:00:00Z,27.8217,-97.2040,0.0,4.7,111.0,7.2,'11111222,11111222,11111222' 
TCOON,ioos:station:TCOON:006:1,2009-07-01T22:00:00Z,27.8217,-97.2040,0.0,5.3,108.0,7.5,'11111222,11111222,11111222' 
TCOON,ioos:station:TCOON:006:1,2009-07-01T23:00:00Z,27.8217,-97.2040,0.0,5.9,115.0,8.3,'11111222,11111222,11111222' 
TCOON,ioos:station:TCOON:006:1,2009-07-02T00:00:00Z,27.8217,-97.2040,0.0,6.6,120.0,8.6,'11111222,11111222,11111222' 
TCOON,ioos:station:TCOON:006:1,2009-07-02T01:00:00Z,27.8217,-97.2040,0.0,6.4,127.0,8.1,'11111222,11111222,11111222' 
TCOON,ioos:station:TCOON:006:1,2009-07-02T02:00:00Z,27.8217,-97.2040,0.0,4.6,114.0,6.3,'11111222,11111222,11111222' 
TCOON,ioos:station:TCOON:006:1,2009-07-02T03:00:00Z,27.8217,-97.2040,0.0,3.8,121.0,5.7,'11111222,11111222,11111222' 
TCOON,ioos:station:TCOON:006:1,2009-07-02T04:00:00Z,27.8217,-97.2040,0.0,4.7,134.0,6.3,'11111222,11111222,11111222' 
TCOON,ioos:station:TCOON:006:1,2009-07-02T05:00:00Z,27.8217,-97.2040,0.0,4.9,146.0,5.7,'11111222,11111222,11111222' 
TCOON,ioos:station:TCOON:006:1,2009-07-02T06:00:00Z,27.8217,-97.2040,0.0,4.9,166.0,5.4,'11111222,11111222,11111222' 
TCOON,ioos:station:TCOON:006:1,2009-07-02T07:00:00Z,27.8217,-97.2040,0.0,5.5,171.0,7.2,'11111222,11111222,11111222' 
TCOON,ioos:station:TCOON:006:1,2009-07-02T08:00:00Z,27.8217,-97.2040,0.0,4.2,169.0,5.0,'11111222,11111222,11111222' 
TCOON,ioos:station:TCOON:006:1,2009-07-02T09:00:00Z,27.8217,-97.2040,0.0,3.7,177.0,4.7,'11111222,11111222,11111222' 
TCOON,ioos:station:TCOON:006:1,2009-07-02T10:00:00Z,27.8217,-97.2040,0.0,2.8,189.0,3.5,'11111222,11111222,11111222' 
TCOON,ioos:station:TCOON:006:1,2009-07-02T11:00:00Z,27.8217,-97.2040,0.0,1.8,197.0,2.3,'11111222,11111222,11111222' 
TCOON,ioos:station:TCOON:006:1,2009-07-02T12:00:00Z,27.8217,-97.2040,0.0,1.7,235.0,2.2,'11111222,11111222,11111222' 
TCOON,ioos:station:TCOON:006:1,2009-07-02T13:00:00Z,27.8217,-97.2040,0.0,1.2,242.0,1.5,'11111222,11111222,11111222' 
TCOON,ioos:station:TCOON:006:1,2009-07-02T14:00:00Z,27.8217,-97.2040,0.0,1.8,251.0,2.1,'11111222,11111222,11111222' 
TCOON,ioos:station:TCOON:006:1,2009-07-02T15:00:00Z,27.8217,-97.2040,0.0,1.8,124.0,2.1,'11111222,11111222,11111222' 
TCOON,ioos:station:TCOON:006:1,2009-07-02T16:00:00Z,27.8217,-97.2040,0.0,2.4,124.0,3.2,'11111222,11111222,11111222' 
TCOON,ioos:station:TCOON:006:1,2009-07-02T17:00:00Z,27.8217,-97.2040,0.0,4.0,105.0,5.3,'11111222,11111222,11111222' 
TCOON,ioos:station:TCOON:006:1,2009-07-02T18:00:00Z,27.8217,-97.2040,0.0,4.3,96.0,6.9,'11111222,11111222,11111222' 
TCOON,ioos:station:TCOON:006:1,2009-07-02T19:00:00Z,27.8217,-97.2040,0.0,4.3,93.0,7.8,'11111222,11111222,11111222' 
TCOON,ioos:station:TCOON:006:1,2009-07-02T20:00:00Z,27.8217,-97.2040,0.0,5.5,94.0,8.4,'11111222,11111222,11111222' 
TCOON,ioos:station:TCOON:006:1,2009-07-02T21:00:00Z,27.8217,-97.2040,0.0,5.1,98.0,8.4,'11111222,11111222,11111222' 
TCOON,ioos:station:TCOON:006:1,2009-07-02T22:00:00Z,27.8217,-97.2040,0.0,6.1,100.0,8.1,'11111222,11111222,11111222' 
TCOON,ioos:station:TCOON:006:1,2009-07-02T23:00:00Z,27.8217,-97.2040,0.0,4.9,98.0,7.0,'11111222,11111222,11111222' 
TCOON,ioos:station:TCOON:006:1,2009-07-03T00:00:00Z,27.8217,-97.2040,0.0,3.2,110.0,7.8,'11111222,11111222,11111222' 
TCOON,ioos:station:TCOON:006:1,2009-07-03T01:00:00Z,27.8217,-97.2040,0.0,4.2,101.0,6.9,'11111222,11111222,11111222' 
TCOON,ioos:station:TCOON:006:1,2009-07-03T02:00:00Z,27.8217,-97.2040,0.0,3.2,116.0,4.5,'11111222,11111222,11111222' 
TCOON,ioos:station:TCOON:006:1,2009-07-03T03:00:00Z,27.8217,-97.2040,0.0,3.5,107.0,5.2,'11111222,11111222,11111222' 
TCOON,ioos:station:TCOON:006:1,2009-07-03T04:00:00Z,27.8217,-97.2040,0.0,3.6,103.0,5.3,'11111222,11111222,11111222' 
TCOON,ioos:station:TCOON:006:1,2009-07-03T05:00:00Z,27.8217,-97.2040,0.0,3.7,119.0,6.7,'11111222,11111222,11111222' 
TCOON,ioos:station:TCOON:006:1,2009-07-03T06:00:00Z,27.8217,-97.2040,0.0,4.0,125.0,6.2,'11111222,11111222,11111222' 
TCOON,ioos:station:TCOON:006:1,2009-07-03T07:00:00Z,27.8217,-97.2040,0.0,5.2,157.0,7.1,'11111222,11111222,11111222' 
TCOON,ioos:station:TCOON:006:1,2009-07-03T08:00:00Z,27.8217,-97.2040,0.0,4.9,170.0,6.1,'11111222,11111222,11111222' 
TCOON,ioos:station:TCOON:006:1,2009-07-03T09:00:00Z,27.8217,-97.2040,0.0,3.4,164.0,4.1,'11111222,11111222,11111222' 
TCOON,ioos:station:TCOON:006:1,2009-07-03T10:00:00Z,27.8217,-97.2040,0.0,3.7,157.0,5.3,'11111222,11111222,11111222' 
TCOON,ioos:station:TCOON:006:1,2009-07-03T11:00:00Z,27.8217,-97.2040,0.0,2.5,144.0,2.9,'11111222,11111222,11111222' 
TCOON,ioos:station:TCOON:006:1,2009-07-03T12:00:00Z,27.8217,-97.2040,0.0,2.8,133.0,3.5,'11111222,11111222,11111222' 
TCOON,ioos:station:TCOON:006:1,2009-07-03T13:00:00Z,27.8217,-97.2040,0.0,3.0,172.0,3.5,'11111222,11111222,11111222' 
TCOON,ioos:station:TCOON:006:1,2009-07-03T14:00:00Z,27.8217,-97.2040,0.0,2.4,160.0,3.6,'11111222,11111222,11111222' 
TCOON,ioos:station:TCOON:006:1,2009-07-03T15:00:00Z,27.8217,-97.2040,0.0,4.5,144.0,6.1,'11111222,11111222,11111222' 
TCOON,ioos:station:TCOON:006:1,2009-07-03T16:00:00Z,27.8217,-97.2040,0.0,4.7,122.0,6.4,'11111222,11111222,11111222' 
TCOON,ioos:station:TCOON:006:1,2009-07-03T17:00:00Z,27.8217,-97.2040,0.0,4.1,113.0,5.5,'11111222,11111222,11111222' 
TCOON,ioos:station:TCOON:006:1,2009-07-03T18:00:00Z,27.8217,-97.2040,0.0,4.4,112.0,6.2,'11111222,11111222,11111222' 
TCOON,ioos:station:TCOON:006:1,2009-07-03T19:00:00Z,27.8217,-97.2040,0.0,3.9,112.0,5.6,'11111222,11111222,11111222' 
TCOON,ioos:station:TCOON:006:1,2009-07-03T20:00:00Z,27.8217,-97.2040,0.0,5.9,118.0,7.4,'11111222,11111222,11111222' 
TCOON,ioos:station:TCOON:006:1,2009-07-03T21:00:00Z,27.8217,-97.2040,0.0,6.1,119.0,7.8,'11111222,11111222,11111222' 
TCOON,ioos:station:TCOON:006:1,2009-07-03T22:00:00Z,27.8217,-97.2040,0.0,5.4,103.0,8.1,'11111222,11111222,11111222' 
TCOON,ioos:station:TCOON:006:1,2009-07-03T23:00:00Z,27.8217,-97.2040,0.0,5.9,119.0,7.7,'11111222,11111222,11111222' 
TCOON,ioos:station:TCOON:006:1,2009-07-04T00:00:00Z,27.8217,-97.2040,0.0,6.3,110.0,8.7,'11111222,11111222,11111222' 
TCOON,ioos:station:TCOON:006:1,2009-07-04T01:00:00Z,27.8217,-97.2040,0.0,6.9,118.0,8.9,'11111222,11111222,11111222' 
TCOON,ioos:station:TCOON:006:1,2009-07-04T02:00:00Z,27.8217,-97.2040,0.0,7.7,129.0,9.7,'11111222,11111222,11111222' 
TCOON,ioos:station:TCOON:006:1,2009-07-04T03:00:00Z,27.8217,-97.2040,0.0,6.9,131.0,9.4,'11111222,11111222,11111222' 
TCOON,ioos:station:TCOON:006:1,2009-07-04T04:00:00Z,27.8217,-97.2040,0.0,6.7,141.0,8.6,'11111222,11111222,11111222' 
TCOON,ioos:station:TCOON:006:1,2009-07-04T05:00:00Z,27.8217,-97.2040,0.0,5.9,151.0,7.7,'11111222,11111222,11111222' 
TCOON,ioos:station:TCOON:006:1,2009-07-04T06:00:00Z,27.8217,-97.2040,0.0,6.6,151.0,8.6,'11111222,11111222,11111222' 
TCOON,ioos:station:TCOON:006:1,2009-07-04T07:00:00Z,27.8217,-97.2040,0.0,6.6,150.0,9.0,'11111222,11111222,11111222' 
TCOON,ioos:station:TCOON:006:1,2009-07-04T08:00:00Z,27.8217,-97.2040,0.0,7.9,159.0,9.3,'11111222,11111222,11111222' 
TCOON,ioos:station:TCOON:006:1,2009-07-04T09:00:00Z,27.8217,-97.2040,0.0,6.6,153.0,8.5,'11111222,11111222,11111222' 
TCOON,ioos:station:TCOON:006:1,2009-07-04T10:00:00Z,27.8217,-97.2040,0.0,6.2,158.0,8.1,'11111222,11111222,11111222' 
TCOON,ioos:station:TCOON:006:1,2009-07-04T11:00:00Z,27.8217,-97.2040,0.0,8.6,170.0,9.6,'11111222,11111222,11111222' 
TCOON,ioos:station:TCOON:006:1,2009-07-04T12:00:00Z,27.8217,-97.2040,0.0,7.5,176.0,9.3,'11111222,11111222,11111222' 
TCOON,ioos:station:TCOON:006:1,2009-07-04T13:00:00Z,27.8217,-97.2040,0.0,8.3,168.0,9.9,'11111222,11111222,11111222' 
TCOON,ioos:station:TCOON:006:1,2009-07-04T14:00:00Z,27.8217,-97.2040,0.0,7.3,175.0,9.2,'11111222,11111222,11111222' 
TCOON,ioos:station:TCOON:006:1,2009-07-04T15:00:00Z,27.8217,-97.2040,0.0,6.7,159.0,8.1,'11111222,11111222,11111222' 
TCOON,ioos:station:TCOON:006:1,2009-07-04T16:00:00Z,27.8217,-97.2040,0.0,6.4,145.0,7.8,'11111222,11111222,11111222' 
TCOON,ioos:station:TCOON:006:1,2009-07-04T17:00:00Z,27.8217,-97.2040,0.0,6.1,142.0,8.0,'11111222,11111222,11111222' 
TCOON,ioos:station:TCOON:006:1,2009-07-04T18:00:00Z,27.8217,-97.2040,0.0,6.2,132.0,7.4,'11111222,11111222,11111222' 
TCOON,ioos:station:TCOON:006:1,2009-07-04T19:00:00Z,27.8217,-97.2040,0.0,8.3,133.0,9.4,'11111222,11111222,11111222' 
TCOON,ioos:station:TCOON:006:1,2009-07-04T20:00:00Z,27.8217,-97.2040,0.0,6.9,118.0,8.8,'11111222,11111222,11111222' 
TCOON,ioos:station:TCOON:006:1,2009-07-04T21:00:00Z,27.8217,-97.2040,0.0,9.0,120.0,11.4,'11111222,11111222,11111222' 
TCOON,ioos:station:TCOON:006:1,2009-07-04T22:00:00Z,27.8217,-97.2040,0.0,10.9,123.0,12.6,'11111222,11111222,11111222' 
TCOON,ioos:station:TCOON:006:1,2009-07-04T23:00:00Z,27.8217,-97.2040,0.0,11.2,131.0,13.5,'11111222,11111222,11111222' 
TCOON,ioos:station:TCOON:006:1,2009-07-05T00:00:00Z,27.8217,-97.2040,0.0,7.8,137.0,11.7,'11111222,11111222,11111222' 
TCOON,ioos:station:TCOON:006:1,2009-07-05T01:00:00Z,27.8217,-97.2040,0.0,8.8,145.0,11.0,'11111222,11111222,11111222' 
TCOON,ioos:station:TCOON:006:1,2009-07-05T02:00:00Z,27.8217,-97.2040,0.0,8.9,149.0,10.4,'11111222,11111222,11111222' 
TCOON,ioos:station:TCOON:006:1,2009-07-05T03:00:00Z,27.8217,-97.2040,0.0,7.3,152.0,10.6,'11111222,11111222,11111222' 
TCOON,ioos:station:TCOON:006:1,2009-07-05T04:00:00Z,27.8217,-97.2040,0.0,7.6,155.0,9.6,'11111222,11111222,11111222' 
TCOON,ioos:station:TCOON:006:1,2009-07-05T05:00:00Z,27.8217,-97.2040,0.0,7.9,156.0,10.0,'11111222,11111222,11111222' 
TCOON,ioos:station:TCOON:006:1,2009-07-05T06:00:00Z,27.8217,-97.2040,0.0,8.4,169.0,10.2,'11111222,11111222,11111222' 
TCOON,ioos:station:TCOON:006:1,2009-07-05T07:00:00Z,27.8217,-97.2040,0.0,8.2,165.0,10.4,'11111222,11111222,11111222' 
TCOON,ioos:station:TCOON:006:1,2009-07-05T08:00:00Z,27.8217,-97.2040,0.0,8.9,160.0,11.7,'11111222,11111222,11111222' 
TCOON,ioos:station:TCOON:006:1,2009-07-05T09:00:00Z,27.8217,-97.2040,0.0,10.8,170.0,13.8,'11111222,11111222,11111222' 
TCOON,ioos:station:TCOON:006:1,2009-07-05T10:00:00Z,27.8217,-97.2040,0.0,9.3,174.0,12.6,'11111222,11111222,11111222' 
TCOON,ioos:station:TCOON:006:1,2009-07-05T11:00:00Z,27.8217,-97.2040,0.0,7.6,169.0,12.2,'11111222,11111222,11111222' 
TCOON,ioos:station:TCOON:006:1,2009-07-05T12:00:00Z,27.8217,-97.2040,0.0,8.3,172.0,10.5,'11111222,11111222,11111222' 
TCOON,ioos:station:TCOON:006:1,2009-07-05T13:00:00Z,27.8217,-97.2040,0.0,9.1,172.0,12.4,'11111222,11111222,11111222' 
TCOON,ioos:station:TCOON:006:1,2009-07-05T14:00:00Z,27.8217,-97.2040,0.0,8.1,174.0,10.7,'11111222,11111222,11111222' 
TCOON,ioos:station:TCOON:006:1,2009-07-05T15:00:00Z,27.8217,-97.2040,0.0,7.4,164.0,9.5,'11111222,11111222,11111222' 
TCOON,ioos:station:TCOON:006:1,2009-07-05T16:00:00Z,27.8217,-97.2040,0.0,6.8,156.0,8.4,'11111222,11111222,11111222' 
TCOON,ioos:station:TCOON:006:1,2009-07-05T17:00:00Z,27.8217,-97.2040,0.0,7.8,143.0,9.2,'11111222,11111222,11111222' 
TCOON,ioos:station:TCOON:006:1,2009-07-05T18:00:00Z,27.8217,-97.2040,0.0,8.2,139.0,11.6,'11111222,11111222,11111222' 
TCOON,ioos:station:TCOON:006:1,2009-07-05T19:00:00Z,27.8217,-97.2040,0.0,9.6,143.0,12.5,'11111222,11111222,11111222' 
TCOON,ioos:station:TCOON:006:1,2009-07-05T20:00:00Z,27.8217,-97.2040,0.0,9.6,146.0,12.9,'11111222,11111222,11111222' 
TCOON,ioos:station:TCOON:006:1,2009-07-05T21:00:00Z,27.8217,-97.2040,0.0,9.7,142.0,12.7,'11111222,11111222,11111222' 
TCOON,ioos:station:TCOON:006:1,2009-07-05T22:00:00Z,27.8217,-97.2040,0.0,10.7,145.0,13.9,'11111222,11111222,11111222' 
TCOON,ioos:station:TCOON:006:1,2009-07-05T23:00:00Z,27.8217,-97.2040,0.0,10.2,147.0,13.1,'11111222,11111222,11111222' 
TCOON,ioos:station:TCOON:006:1,2009-07-06T00:00:00Z,27.8217,-97.2040,0.0,7.2,140.0,10.6,'11111222,11111222,11111222' 
TCOON,ioos:station:TCOON:006:1,2009-07-06T01:00:00Z,27.8217,-97.2040,0.0,6.7,145.0,7.8,'11111222,11111222,11111222' 
TCOON,ioos:station:TCOON:006:1,2009-07-06T02:00:00Z,27.8217,-97.2040,0.0,6.5,145.0,8.2,'11111222,11111222,11111222' 
TCOON,ioos:station:TCOON:006:1,2009-07-06T03:00:00Z,27.8217,-97.2040,0.0,4.8,149.0,7.1,'11111222,11111222,11111222' 
TCOON,ioos:station:TCOON:006:1,2009-07-06T04:00:00Z,27.8217,-97.2040,0.0,5.4,139.0,7.1,'11111222,11111222,11111222' 
TCOON,ioos:station:TCOON:006:1,2009-07-06T05:00:00Z,27.8217,-97.2040,0.0,5.9,143.0,8.2,'11111222,11111222,11111222' 
TCOON,ioos:station:TCOON:006:1,2009-07-06T06:00:00Z,27.8217,-97.2040,0.0,8.2,150.0,10.0,'11111222,11111222,11111222' 
TCOON,ioos:station:TCOON:006:1,2009-07-06T07:00:00Z,27.8217,-97.2040,0.0,8.5,163.0,10.9,'11111222,11111222,11111222' 
TCOON,ioos:station:TCOON:006:1,2009-07-06T08:00:00Z,27.8217,-97.2040,0.0,8.6,162.0,9.8,'11111222,11111222,11111222' 
TCOON,ioos:station:TCOON:006:1,2009-07-06T09:00:00Z,27.8217,-97.2040,0.0,8.6,167.0,11.2,'11111222,11111222,11111222' 
TCOON,ioos:station:TCOON:006:1,2009-07-06T10:00:00Z,27.8217,-97.2040,0.0,7.9,167.0,10.1,'11111222,11111222,11111222' 
TCOON,ioos:station:TCOON:006:1,2009-07-06T11:00:00Z,27.8217,-97.2040,0.0,8.3,170.0,9.7,'11111222,11111222,11111222' 
TCOON,ioos:station:TCOON:006:1,2009-07-06T12:00:00Z,27.8217,-97.2040,0.0,8.4,165.0,9.7,'11111222,11111222,11111222' 
TCOON,ioos:station:TCOON:006:1,2009-07-06T13:00:00Z,27.8217,-97.2040,0.0,8.6,157.0,10.2,'11111222,11111222,11111222' 
TCOON,ioos:station:TCOON:006:1,2009-07-06T14:00:00Z,27.8217,-97.2040,0.0,8.1,169.0,9.7,'11111222,11111222,11111222' 
TCOON,ioos:station:TCOON:006:1,2009-07-06T15:00:00Z,27.8217,-97.2040,0.0,8.5,168.0,10.1,'11111222,11111222,11111222' 
TCOON,ioos:station:TCOON:006:1,2009-07-06T16:00:00Z,27.8217,-97.2040,0.0,7.3,169.0,9.0,'11111222,11111222,11111222' 
TCOON,ioos:station:TCOON:006:1,2009-07-06T17:00:00Z,27.8217,-97.2040,0.0,6.3,152.0,7.7,'11111222,11111222,11111222' 
TCOON,ioos:station:TCOON:006:1,2009-07-06T18:00:00Z,27.8217,-97.2040,0.0,6.3,146.0,8.3,'11111222,11111222,11111222' 
TCOON,ioos:station:TCOON:006:1,2009-07-06T19:00:00Z,27.8217,-97.2040,0.0,7.5,135.0,10.4,'11111222,11111222,11111222' 
TCOON,ioos:station:TCOON:006:1,2009-07-06T20:00:00Z,27.8217,-97.2040,0.0,7.1,130.0,9.3,'11111222,11111222,11111222' 
TCOON,ioos:station:TCOON:006:1,2009-07-06T21:00:00Z,27.8217,-97.2040,0.0,7.3,126.0,9.1,'11111222,11111222,11111222' 
TCOON,ioos:station:TCOON:006:1,2009-07-06T22:00:00Z,27.8217,-97.2040,0.0,7.0,129.0,8.9,'11111222,11111222,11111222' 
TCOON,ioos:station:TCOON:006:1,2009-07-06T23:00:00Z,27.8217,-97.2040,0.0,7.1,125.0,9.3,'11111222,11111222,11111222' 
TCOON,ioos:station:TCOON:006:1,2009-07-07T00:00:00Z,27.8217,-97.2040,0.0,9.1,138.0,11.0,'11111222,11111222,11111222' 
TCOON,ioos:station:TCOON:006:1,2009-07-07T01:00:00Z,27.8217,-97.2040,0.0,7.1,133.0,10.1,'11111222,11111222,11111222' 
TCOON,ioos:station:TCOON:006:1,2009-07-07T02:00:00Z,27.8217,-97.2040,0.0,7.1,139.0,8.9,'11111222,11111222,11111222' 
TCOON,ioos:station:TCOON:006:1,2009-07-07T03:00:00Z,27.8217,-97.2040,0.0,7.1,145.0,9.5,'11111222,11111222,11111222' 
TCOON,ioos:station:TCOON:006:1,2009-07-07T04:00:00Z,27.8217,-97.2040,0.0,6.4,156.0,8.4,'11111222,11111222,11111222' 
TCOON,ioos:station:TCOON:006:1,2009-07-07T05:00:00Z,27.8217,-97.2040,0.0,7.9,160.0,8.7,'11111222,11111222,11111222' 
TCOON,ioos:station:TCOON:006:1,2009-07-07T06:00:00Z,27.8217,-97.2040,0.0,6.9,163.0,9.3,'11111222,11111222,11111222' 
TCOON,ioos:station:TCOON:006:1,2009-07-07T07:00:00Z,27.8217,-97.2040,0.0,6.3,166.0,8.0,'11111222,11111222,11111222' 
TCOON,ioos:station:TCOON:006:1,2009-07-07T08:00:00Z,27.8217,-97.2040,0.0,6.9,161.0,9.5,'11111222,11111222,11111222' 
TCOON,ioos:station:TCOON:006:1,2009-07-07T09:00:00Z,27.8217,-97.2040,0.0,8.2,164.0,10.1,'11111222,11111222,11111222' 
TCOON,ioos:station:TCOON:006:1,2009-07-07T10:00:00Z,27.8217,-97.2040,0.0,6.3,155.0,7.7,'11111222,11111222,11111222' 
TCOON,ioos:station:TCOON:006:1,2009-07-07T11:00:00Z,27.8217,-97.2040,0.0,6.4,156.0,8.8,'11111222,11111222,11111222' 
TCOON,ioos:station:TCOON:006:1,2009-07-07T12:00:00Z,27.8217,-97.2040,0.0,3.1,142.0,5.3,'11111222,11111222,11111222' 
TCOON,ioos:station:TCOON:006:1,2009-07-07T13:00:00Z,27.8217,-97.2040,0.0,1.3,156.0,1.7,'11111222,11111222,11111222' 
TCOON,ioos:station:TCOON:006:1,2009-07-07T14:00:00Z,27.8217,-97.2040,0.0,4.3,150.0,5.5,'11111222,11111222,11111222' 
TCOON,ioos:station:TCOON:006:1,2009-07-07T15:00:00Z,27.8217,-97.2040,0.0,5.6,148.0,7.0,'11111222,11111222,11111222' 
TCOON,ioos:station:TCOON:006:1,2009-07-07T16:00:00Z,27.8217,-97.2040,0.0,6.9,152.0,8.5,'11111222,11111222,11111222' 
TCOON,ioos:station:TCOON:006:1,2009-07-07T18:00:00Z,27.8217,-97.2040,0.0,5.4,141.0,7.3,'11111222,11111222,11111222' 
TCOON,ioos:station:TCOON:006:1,2009-07-07T19:00:00Z,27.8217,-97.2040,0.0,6.1,140.0,8.7,'11111222,11111222,11111222' 
TCOON,ioos:station:TCOON:006:1,2009-07-07T20:00:00Z,27.8217,-97.2040,0.0,6.9,134.0,8.8,'11111222,11111222,11111222' 
TCOON,ioos:station:TCOON:006:1,2009-07-07T21:00:00Z,27.8217,-97.2040,0.0,6.6,129.0,8.6,'11111222,11111222,11111222' 
TCOON,ioos:station:TCOON:006:1,2009-07-07T22:00:00Z,27.8217,-97.2040,0.0,8.1,134.0,9.5,'11111222,11111222,11111222' 
TCOON,ioos:station:TCOON:006:1,2009-07-07T23:00:00Z,27.8217,-97.2040,0.0,6.2,143.0,8.2,'11111222,11111222,11111222' 
TCOON,ioos:station:TCOON:006:1,2009-07-08T00:00:00Z,27.8217,-97.2040,0.0,6.2,138.0,7.4,'11111222,11111222,11111222' 
TCOON,ioos:station:TCOON:006:1,2009-07-08T01:00:00Z,27.8217,-97.2040,0.0,6.2,142.0,7.5,'11111222,11111222,11111222' 
TCOON,ioos:station:TCOON:006:1,2009-07-08T02:00:00Z,27.8217,-97.2040,0.0,4.9,137.0,6.7,'11111222,11111222,11111222' 
TCOON,ioos:station:TCOON:006:1,2009-07-08T03:00:00Z,27.8217,-97.2040,0.0,5.3,143.0,8.0,'11111222,11111222,11111222' 
TCOON,ioos:station:TCOON:006:1,2009-07-08T04:00:00Z,27.8217,-97.2040,0.0,5.4,154.0,7.7,'11111222,11111222,11111222' 
TCOON,ioos:station:TCOON:006:1,2009-07-08T05:00:00Z,27.8217,-97.2040,0.0,5.4,156.0,6.6,'11111222,11111222,11111222' 
TCOON,ioos:station:TCOON:006:1,2009-07-08T06:00:00Z,27.8217,-97.2040,0.0,7.1,166.0,8.0,'11111222,11111222,11111222' 
TCOON,ioos:station:TCOON:006:1,2009-07-08T07:00:00Z,27.8217,-97.2040,0.0,6.9,164.0,9.4,'11111222,11111222,11111222' 
TCOON,ioos:station:TCOON:006:1,2009-07-08T08:00:00Z,27.8217,-97.2040,0.0,6.1,160.0,7.6,'11111222,11111222,11111222' 
TCOON,ioos:station:TCOON:006:1,2009-07-08T09:00:00Z,27.8217,-97.2040,0.0,5.6,149.0,7.4,'11111222,11111222,11111222' 
TCOON,ioos:station:TCOON:006:1,2009-07-08T10:00:00Z,27.8217,-97.2040,0.0,5.9,160.0,7.1,'11111222,11111222,11111222' 
TCOON,ioos:station:TCOON:006:1,2009-07-08T11:00:00Z,27.8217,-97.2040,0.0,5.1,157.0,6.2,'11111222,11111222,11111222' 
TCOON,ioos:station:TCOON:006:1,2009-07-08T12:00:00Z,27.8217,-97.2040,0.0,4.5,156.0,6.1,'11111222,11111222,11111222' 
TCOON,ioos:station:TCOON:006:1,2009-07-08T13:00:00Z,27.8217,-97.2040,0.0,5.4,163.0,7.2,'11111222,11111222,11111222' 
TCOON,ioos:station:TCOON:006:1,2009-07-08T14:00:00Z,27.8217,-97.2040,0.0,5.9,163.0,7.7,'11111222,11111222,11111222' 
TCOON,ioos:station:TCOON:006:1,2009-07-08T15:00:00Z,27.8217,-97.2040,0.0,7.0,162.0,8.7,'11111222,11111222,11111222' 
TCOON,ioos:station:TCOON:006:1,2009-07-08T16:00:00Z,27.8217,-97.2040,0.0,7.0,155.0,10.8,'11111222,11111222,11111222' 
TCOON,ioos:station:TCOON:006:1,2009-07-08T17:00:00Z,27.8217,-97.2040,0.0,7.6,151.0,9.1,'11111222,11111222,11111222' 
TCOON,ioos:station:TCOON:006:1,2009-07-08T18:00:00Z,27.8217,-97.2040,0.0,7.7,143.0,10.5,'11111222,11111222,11111222' 
TCOON,ioos:station:TCOON:006:1,2009-07-08T19:00:00Z,27.8217,-97.2040,0.0,8.0,136.0,10.6,'11111222,11111222,11111222' 
TCOON,ioos:station:TCOON:006:1,2009-07-08T20:00:00Z,27.8217,-97.2040,0.0,8.2,134.0,10.8,'11111222,11111222,11111222' 
TCOON,ioos:station:TCOON:006:1,2009-07-08T21:00:00Z,27.8217,-97.2040,0.0,8.7,137.0,10.7,'11111222,11111222,11111222' 
TCOON,ioos:station:TCOON:006:1,2009-07-08T22:00:00Z,27.8217,-97.2040,0.0,7.5,132.0,10.3,'11111222,11111222,11111222' 
TCOON,ioos:station:TCOON:006:1,2009-07-08T23:00:00Z,27.8217,-97.2040,0.0,8.2,144.0,11.3,'11111222,11111222,11111222' 
TCOON,ioos:station:TCOON:006:1,2009-07-09T00:00:00Z,27.8217,-97.2040,0.0,7.8,139.0,9.5,'11111222,11111222,11111222' 
TCOON,ioos:station:TCOON:006:1,2009-07-09T01:00:00Z,27.8217,-97.2040,0.0,5.9,140.0,8.3,'11111222,11111222,11111222' 
TCOON,ioos:station:TCOON:006:1,2009-07-09T02:00:00Z,27.8217,-97.2040,0.0,5.7,140.0,9.3,'11111222,11111222,11111222' 
TCOON,ioos:station:TCOON:006:1,2009-07-09T03:00:00Z,27.8217,-97.2040,0.0,7.1,150.0,8.2,'11111222,11111222,11111222' 
TCOON,ioos:station:TCOON:006:1,2009-07-09T04:00:00Z,27.8217,-97.2040,0.0,6.7,158.0,8.4,'11111222,11111222,11111222' 
TCOON,ioos:station:TCOON:006:1,2009-07-09T05:00:00Z,27.8217,-97.2040,0.0,6.9,156.0,8.8,'11111222,11111222,11111222' 
TCOON,ioos:station:TCOON:006:1,2009-07-09T06:00:00Z,27.8217,-97.2040,0.0,6.3,160.0,8.0,'11111222,11111222,11111222' 
TCOON,ioos:station:TCOON:006:1,2009-07-09T07:00:00Z,27.8217,-97.2040,0.0,7.4,167.0,8.8,'11111222,11111222,11111222' 
TCOON,ioos:station:TCOON:006:1,2009-07-09T08:00:00Z,27.8217,-97.2040,0.0,5.5,158.0,7.2,'11111222,11111222,11111222' 
TCOON,ioos:station:TCOON:006:1,2009-07-09T09:00:00Z,27.8217,-97.2040,0.0,6.2,168.0,7.3,'11111222,11111222,11111222' 
TCOON,ioos:station:TCOON:006:1,2009-07-09T10:00:00Z,27.8217,-97.2040,0.0,4.9,169.0,6.7,'11111222,11111222,11111222' 
TCOON,ioos:station:TCOON:006:1,2009-07-09T11:00:00Z,27.8217,-97.2040,0.0,4.2,166.0,6.1,'11111222,11111222,11111222' 
TCOON,ioos:station:TCOON:006:1,2009-07-09T12:00:00Z,27.8217,-97.2040,0.0,5.2,163.0,6.5,'11111222,11111222,11111222' 